Powrót do katalogu

ONEWEB-0375

AktywnyŁącznośćPO
NORAD 49301·PAYLOAD·🇬🇧 United Kingdom

Wystrzelony Oct 14, 2021 z Vostochny Cosmodrome

Loading…

Następne Przeloty (najbliższe 24 godziny)

TLE

ŚwieżeSource: CelesTrak SupGP

Epoka: Sep 14, 2026, 15:39 UTC

1 49301C 21090Y   26257.65260833 -.00002876  00000+0 -70816-2 0  2579
2 49301  87.9137 256.5874 0002345 102.7415 295.7117 13.20774970    18

Śledź ONEWEB-0375 w czasie rzeczywistym z AllMySat

Download on the App Store